| time (UTC) | temp F | wind direction | speed knots | gust knots | rain 1hr in | rain 24hr in | rain mn in | humidity % | barometer mb |
| 20260507024016 | 61 | 251 | 6.1 | 14.8 | 0.00 | 0.00 | 0.00 | 86 | 1015.8 |
| 20260507023515 | 61 | 249 | 8.7 | 14.8 | 0.00 | 0.00 | 0.00 | 85 | 1015.7 |
| 20260507023030 | 61 | 247 | 8.7 | 13.9 | 0.00 | 0.00 | 0.00 | 85 | 1015.6 |
| 20260507022516 | 61 | 215 | 7.0 | 13.9 | 0.00 | 0.00 | 0.00 | 85 | 1015.7 |
| 20260507022018 | 61 | 239 | 7.8 | 13.9 | 0.00 | 0.00 | 0.00 | 84 | 1015.6 |
| 20260507021534 | 62 | 254 | 8.7 | 13.9 | 0.00 | 0.00 | 0.00 | 84 | 1015.4 |
| 20260507021015 | 62 | 263 | 8.7 | 13.9 | 0.00 | 0.00 | 0.00 | 83 | 1015.4 |
| 20260507020517 | 62 | 224 | 7.8 | 13.9 | 0.00 | 0.00 | 0.00 | 83 | 1015.5 |
| 20260507020030 | 62 | 229 | 8.7 | 13.9 | 0.00 | 0.00 | 0.00 | 83 | 1015.5 |
| 20260507015515 | 62 | 233 | 7.0 | 12.2 | 0.00 | 0.00 | 0.00 | 83 | 1015.6 |
| 20260507015015 | 62 | 254 | 7.0 | 14.8 | 0.00 | 0.00 | 0.00 | 83 | 1015.5 |
| 20260507014545 | 62 | 288 | 8.7 | 14.8 | 0.00 | 0.00 | 0.00 | 83 | 1015.6 |
| 20260507014015 | 62 | 253 | 8.7 | 13.0 | 0.00 | 0.00 | 0.00 | 83 | 1015.5 |
| 20260507013516 | 63 | 221 | 9.6 | 13.0 | 0.00 | 0.00 | 0.00 | 82 | 1015.5 |
| 20260507013032 | 63 | 252 | 7.8 | 14.8 | 0.00 | 0.00 | 0.00 | 83 | 1015.4 |
| 20260507012516 | 63 | 248 | 7.8 | 14.8 | 0.00 | 0.00 | 0.00 | 82 | 1015.5 |
| 20260507012017 | 63 | 234 | 7.8 | 13.9 | 0.00 | 0.00 | 0.00 | 82 | 1015.5 |
| 20260507011533 | 63 | 247 | 9.6 | 13.9 | 0.00 | 0.00 | 0.00 | 83 | 1015.5 |
| 20260507011015 | 62 | 250 | 9.6 | 15.6 | 0.00 | 0.00 | 0.00 | 83 | 1015.5 |
| 20260507010516 | 63 | 208 | 8.7 | 15.6 | 0.00 | 0.00 | 0.00 | 82 | 1015.5 |
| 20260507010033 | 63 | 239 | 8.7 | 14.8 | 0.00 | 0.00 | 0.00 | 82 | 1015.5 |
| 20260507005516 | 63 | 236 | 9.6 | 15.6 | 0.00 | 0.00 | 0.00 | 83 | 1015.4 |
| 20260507005017 | 63 | 238 | 9.6 | 15.6 | 0.00 | 0.00 | 0.00 | 83 | 1015.3 |
| 20260507004530 | 63 | 229 | 9.6 | 15.6 | 0.00 | 0.00 | 0.00 | 82 | 1015.4 |
| 20260507004020 | 64 | 234 | 7.8 | 13.0 | 0.00 | 0.00 | 0.00 | 80 | 1015.2 |
| 20260507003515 | 64 | 259 | 8.7 | 13.0 | 0.00 | 0.00 | 0.00 | 80 | 1015.4 |
| 20260507003033 | 64 | 246 | 8.7 | 13.0 | 0.00 | 0.00 | 0.00 | 80 | 1015.5 |
| 20260507002515 | 64 | 246 | 7.8 | 14.8 | 0.00 | 0.00 | 0.00 | 81 | 1015.5 |
| 20260507002015 | 64 | 247 | 9.6 | 14.8 | 0.00 | 0.00 | 0.00 | 81 | 1015.3 |
| 20260507001532 | 63 | 260 | 8.7 | 14.8 | 0.00 | 0.00 | 0.00 | 81 | 1015.3 |
| 20260507001017 | 64 | 257 | 10.4 | 13.9 | 0.00 | 0.00 | 0.00 | 81 | 1015.3 |
| 20260507000516 | 63 | 217 | 9.6 | 14.8 | 0.00 | 0.00 | 0.00 | 81 | 1015.3 |
| 20260507000036 | 63 | 258 | 8.7 | 14.8 | 0.00 | 0.00 | 0.00 | 81 | 1015.3 |
| 20260506235516 | 64 | 180 | 8.7 | 14.8 | 0.00 | 0.00 | 0.00 | 82 | 1015.3 |
| 20260506235015 | 63 | 263 | 7.0 | 14.8 | 0.00 | 0.00 | 0.00 | 82 | 1015.3 |
| 20260506234530 | 64 | 248 | 9.6 | 14.8 | 0.00 | 0.00 | 0.00 | 81 | 1015.4 |
| 20260506234015 | 64 | 223 | 8.7 | 13.9 | 0.00 | 0.00 | 0.00 | 80 | 1015.5 |
| 20260506233516 | 64 | 245 | 8.7 | 13.9 | 0.00 | 0.00 | 0.00 | 79 | 1015.6 |
| 20260506233035 | 65 | 246 | 7.8 | 13.9 | 0.00 | 0.00 | 0.00 | 78 | 1015.5 |
| 20260506232515 | 65 | 239 | 9.6 | 13.9 | 0.00 | 0.00 | 0.00 | 77 | 1015.6 |
| 20260506232016 | 65 | 176 | 6.1 | 13.9 | 0.00 | 0.00 | 0.00 | 78 | 1015.5 |
| 20260506231532 | 64 | 207 | 7.8 | 14.8 | 0.00 | 0.00 | 0.00 | 78 | 1015.5 |
| 20260506231018 | 63 | 195 | 8.7 | 14.8 | 0.00 | 0.00 | 0.00 | 80 | 1015.6 |
| 20260506230516 | 64 | 213 | 9.6 | 14.8 | 0.00 | 0.00 | 0.00 | 79 | 1015.7 |
| 20260506230031 | 64 | 189 | 8.7 | 14.8 | 0.00 | 0.00 | 0.00 | 77 | 1015.6 |
| 20260506225520 | 65 | 175 | 7.8 | 13.9 | 0.00 | 0.00 | 0.00 | 77 | 1015.6 |
| 20260506225016 | 64 | 218 | 8.7 | 13.9 | 0.00 | 0.00 | 0.00 | 78 | 1015.6 |
| 20260506224532 | 64 | 221 | 9.6 | 14.8 | 0.00 | 0.00 | 0.00 | 77 | 1015.8 |
| 20260506224016 | 65 | 178 | 8.7 | 14.8 | 0.00 | 0.00 | 0.00 | 78 | 1015.8 |
| 20260506223515 | 65 | 254 | 9.6 | 13.9 | 0.00 | 0.00 | 0.00 | 78 | 1015.9 |
| 20260506223032 | 65 | 249 | 8.7 | 13.9 | 0.00 | 0.00 | 0.00 | 78 | 1016.0 |
| 20260506222516 | 65 | 180 | 7.0 | 13.9 | 0.00 | 0.00 | 0.00 | 78 | 1016.1 |
| 20260506222018 | 65 | 252 | 7.8 | 13.9 | 0.00 | 0.00 | 0.00 | 78 | 1016.0 |
| 20260506221530 | 64 | 178 | 7.8 | 13.0 | 0.00 | 0.00 | 0.00 | 79 | 1016.1 |
| 20260506221019 | 64 | 182 | 9.6 | 14.8 | 0.00 | 0.00 | 0.00 | 79 | 1016.3 |
| 20260506220515 | 63 | 222 | 9.6 | 14.8 | 0.00 | 0.00 | 0.00 | 79 | 1016.3 |
| 20260506220030 | 64 | 194 | 8.7 | 14.8 | 0.00 | 0.00 | 0.00 | 78 | 1016.3 |
| 20260506215520 | 64 | 229 | 9.6 | 15.6 | 0.00 | 0.00 | 0.00 | 78 | 1016.4 |
| 20260506215018 | 64 | 187 | 9.6 | 15.6 | 0.00 | 0.00 | 0.00 | 78 | 1016.4 |
| 20260506214529 | 64 | 168 | 7.8 | 15.6 | 0.00 | 0.00 | 0.00 | 79 | 1016.5 |
| 20260506214015 | 64 | 271 | 8.7 | 15.6 | 0.00 | 0.00 | 0.00 | 78 | 1016.5 |
| 20260506213515 | 64 | 211 | 10.4 | 15.6 | 0.00 | 0.00 | 0.00 | 79 | 1016.6 |
| 20260506213031 | 63 | 190 | 9.6 | 13.9 | 0.00 | 0.00 | 0.00 | 78 | 1016.6 |
| 20260506212515 | 63 | 197 | 8.7 | 13.0 | 0.00 | 0.00 | 0.00 | 78 | 1016.6 |
| 20260506212015 | 64 | 251 | 8.7 | 13.9 | 0.00 | 0.00 | 0.00 | 78 | 1016.7 |
| 20260506211534 | 64 | 242 | 9.6 | 13.9 | 0.00 | 0.00 | 0.00 | 77 | 1016.6 |
| 20260506211015 | 64 | 279 | 7.8 | 13.9 | 0.00 | 0.00 | 0.00 | 79 | 1016.6 |
| 20260506210517 | 63 | 243 | 8.7 | 13.9 | 0.00 | 0.00 | 0.00 | 80 | 1016.7 |
| 20260506210032 | 63 | 240 | 8.7 | 13.9 | 0.00 | 0.00 | 0.00 | 79 | 1016.7 |
| 20260506205515 | 64 | 232 | 8.7 | 13.9 | 0.00 | 0.00 | 0.00 | 79 | 1016.7 |
| 20260506205015 | 64 | 225 | 9.6 | 13.9 | 0.00 | 0.00 | 0.00 | 80 | 1016.8 |
| 20260506204530 | 64 | 205 | 9.6 | 13.9 | 0.00 | 0.00 | 0.00 | 79 | 1016.8 |
| 20260506204014 | 63 | 196 | 8.7 | 13.9 | 0.00 | 0.00 | 0.00 | 80 | 1016.9 |
| 20260506203518 | 63 | 226 | 7.8 | 13.9 | 0.00 | 0.00 | 0.00 | 81 | 1017.0 |
| 20260506203031 | 63 | 229 | 8.7 | 13.9 | 0.00 | 0.00 | 0.00 | 80 | 1017.0 |
| 20260506202515 | 64 | 292 | 7.8 | 12.2 | 0.00 | 0.00 | 0.00 | 80 | 1016.9 |
| 20260506202016 | 64 | 222 | 6.1 | 12.2 | 0.00 | 0.00 | 0.00 | 81 | 1017.1 |
| 20260506201531 | 63 | 213 | 6.1 | 12.2 | 0.00 | 0.00 | 0.00 | 80 | 1017.1 |
| 20260506201014 | 63 | 205 | 6.1 | 12.2 | 0.00 | 0.00 | 0.00 | 80 | 1017.0 |
| 20260506200519 | 64 | 190 | 7.8 | 11.3 | 0.00 | 0.00 | 0.00 | 79 | 1017.2 |
| 20260506200030 | 63 | 288 | 7.0 | 13.0 | 0.00 | 0.00 | 0.00 | 80 | 1017.1 |
| 20260506195515 | 64 | 238 | 7.0 | 13.0 | 0.00 | 0.00 | 0.00 | 80 | 1017.1 |
| 20260506195016 | 63 | 221 | 8.7 | 13.0 | 0.00 | 0.00 | 0.00 | 80 | 1017.2 |
| 20260506194534 | 63 | 255 | 8.7 | 13.0 | 0.00 | 0.00 | 0.00 | 80 | 1017.3 |
| 20260506194016 | 63 | 187 | 8.7 | 13.0 | 0.00 | 0.00 | 0.00 | 79 | 1017.3 |
| 20260506193514 | 63 | 274 | 7.8 | 13.0 | 0.00 | 0.00 | 0.00 | 80 | 1017.3 |
| 20260506193032 | 63 | 228 | 8.7 | 13.0 | 0.00 | 0.00 | 0.00 | 78 | 1017.5 |
| 20260506192519 | 64 | 236 | 7.0 | 14.8 | 0.00 | 0.00 | 0.00 | 76 | 1017.5 |
| 20260506192015 | 63 | 184 | 8.7 | 14.8 | 0.00 | 0.00 | 0.00 | 78 | 1017.4 |
| 20260506191530 | 63 | 241 | 8.7 | 13.0 | 0.00 | 0.00 | 0.00 | 78 | 1017.6 |
| 20260506191014 | 63 | 192 | 7.0 | 13.0 | 0.00 | 0.00 | 0.00 | 80 | 1017.6 |
| 20260506190515 | 63 | 229 | 7.8 | 13.0 | 0.00 | 0.00 | 0.00 | 79 | 1017.6 |
| 20260506190030 | 63 | 280 | 7.0 | 13.0 | 0.00 | 0.00 | 0.00 | 78 | 1017.7 |
| 20260506185515 | 63 | 234 | 6.1 | 13.0 | 0.00 | 0.00 | 0.00 | 79 | 1017.7 |
| 20260506185015 | 63 | 222 | 7.0 | 13.0 | 0.00 | 0.00 | 0.00 | 79 | 1017.7 |
| 20260506184530 | 63 | 232 | 7.8 | 13.0 | 0.00 | 0.00 | 0.00 | 78 | 1017.7 |
| 20260506184015 | 63 | 210 | 7.0 | 11.3 | 0.00 | 0.00 | 0.00 | 78 | 1017.7 |
| 20260506183515 | 63 | 219 | 5.2 | 13.0 | 0.00 | 0.00 | 0.00 | 77 | 1017.7 |
| 20260506183030 | 63 | 187 | 7.0 | 13.0 | 0.00 | 0.00 | 0.00 | 77 | 1017.7 |
| 20260506182514 | 63 | 224 | 6.1 | 11.3 | 0.00 | 0.00 | 0.00 | 78 | 1017.8 |
| 20260506182014 | 63 | 222 | 7.0 | 11.3 | 0.00 | 0.00 | 0.00 | 80 | 1017.7 |
| 20260506181530 | 63 | 295 | 6.1 | 11.3 | 0.00 | 0.00 | 0.00 | 79 | 1017.7 |
| 20260506181020 | 62 | 243 | 7.0 | 11.3 | 0.00 | 0.00 | 0.00 | 79 | 1017.7 |
| 20260506180516 | 63 | 240 | 6.1 | 11.3 | 0.00 | 0.00 | 0.00 | 79 | 1017.7 |
| 20260506180045 | 63 | 235 | 7.8 | 11.3 | 0.00 | 0.00 | 0.00 | 79 | 1017.7 |
| 20260506175514 | 63 | 207 | 5.2 | 12.2 | 0.00 | 0.00 | 0.00 | 77 | 1017.9 |
| 20260506175014 | 63 | 187 | 6.1 | 12.2 | 0.00 | 0.00 | 0.00 | 78 | 1017.9 |
| 20260506174529 | 62 | 252 | 6.1 | 8.7 | 0.00 | 0.00 | 0.00 | 78 | 1017.6 |
| 20260506174014 | 63 | 190 | 5.2 | 8.7 | 0.00 | 0.00 | 0.00 | 77 | 1017.7 |
| 20260506173515 | 63 | 188 | 5.2 | 10.4 | 0.00 | 0.00 | 0.00 | 76 | 1017.7 |
| 20260506173034 | 63 | 257 | 5.2 | 10.4 | 0.00 | 0.00 | 0.00 | 76 | 1017.5 |
| 20260506172515 | 63 | 238 | 6.1 | 9.6 | 0.00 | 0.00 | 0.00 | 74 | 1017.5 |
| 20260506172015 | 63 | 182 | 4.3 | 9.6 | 0.00 | 0.00 | 0.00 | 74 | 1017.5 |
| 20260506171533 | 63 | 191 | 5.2 | 9.6 | 0.00 | 0.00 | 0.00 | 75 | 1017.6 |
| 20260506171015 | 63 | 213 | 5.2 | 9.6 | 0.00 | 0.00 | 0.00 | 74 | 1017.6 |
| 20260506170516 | 64 | 241 | 5.2 | 9.6 | 0.00 | 0.00 | 0.00 | 73 | 1017.6 |
| 20260506170032 | 65 | 217 | 2.6 | 7.0 | 0.00 | 0.00 | 0.00 | 73 | 1017.5 |
| 20260506165515 | 65 | 229 | 3.5 | 8.7 | 0.00 | 0.00 | 0.00 | 73 | 1017.4 |
| 20260506165015 | 66 | 194 | 4.3 | 8.7 | 0.00 | 0.00 | 0.00 | 71 | 1017.3 |
| 20260506164532 | 65 | 69 | 1.7 | 5.2 | 0.00 | 0.00 | 0.00 | 72 | 1017.4 |
| 20260506164014 | 64 | 59 | 0.9 | 3.5 | 0.00 | 0.00 | 0.00 | 74 | 1017.4 |
| 20260506163514 | 64 | 137 | 0.9 | 3.5 | 0.00 | 0.00 | 0.00 | 73 | 1017.4 |
| 20260506163050 | 64 | 271 | 0.9 | 2.6 | 0.00 | 0.00 | 0.00 | 73 | 1017.3 |
| 20260506162519 | 64 | 325 | 0.0 | 3.5 | 0.00 | 0.00 | 0.00 | 74 | 1017.4 |
| 20260506162014 | 64 | 160 | 0.9 | 3.5 | 0.00 | 0.00 | 0.00 | 72 | 1017.5 |
| 20260506161533 | 65 | 134 | 1.7 | 4.3 | 0.00 | 0.00 | 0.00 | 72 | 1017.6 |
| 20260506161014 | 65 | 117 | 1.7 | 3.5 | 0.00 | 0.00 | 0.00 | 74 | 1017.5 |
| 20260506160514 | 64 | 83 | 0.9 | 3.5 | 0.00 | 0.00 | 0.00 | 75 | 1017.7 |
| 20260506160034 | 64 | 50 | 0.9 | 4.3 | 0.00 | 0.00 | 0.00 | 76 | 1017.8 |
| 20260506155515 | 64 | 45 | 2.6 | 5.2 | 0.00 | 0.00 | 0.00 | 75 | 1017.7 |
| 20260506155017 | 64 | 28 | 1.7 | 6.1 | 0.00 | 0.00 | 0.00 | 75 | 1017.6 |
| 20260506154534 | 64 | 74 | 1.7 | 6.1 | 0.00 | 0.00 | 0.00 | 76 | 1017.6 |
| 20260506154017 | 64 | 132 | 0.9 | 3.5 | 0.00 | 0.00 | 0.00 | 77 | 1017.5 |
| 20260506153514 | 64 | 63 | 1.7 | 3.5 | 0.00 | 0.00 | 0.00 | 79 | 1017.5 |
| 20260506153030 | 63 | 64 | 0.9 | 3.5 | 0.00 | 0.00 | 0.00 | 79 | 1017.5 |
| 20260506152514 | 63 | 126 | 1.7 | 3.5 | 0.00 | 0.00 | 0.00 | 80 | 1017.6 |
| 20260506152023 | 62 | 0 | 0.0 | 3.5 | 0.00 | 0.00 | 0.00 | 80 | 1017.6 |
| 20260506151530 | 62 | 76 | 1.7 | 3.5 | 0.00 | 0.00 | 0.00 | 80 | 1017.7 |
| 20260506151014 | 62 | 96 | 0.0 | 3.5 | 0.00 | 0.00 | 0.00 | 81 | 1017.6 |
| 20260506150514 | 61 | 120 | 0.9 | 3.5 | 0.00 | 0.00 | 0.00 | 82 | 1017.7 |
| 20260506150033 | 61 | 93 | 0.0 | 1.7 | 0.00 | 0.00 | 0.00 | 83 | 1017.8 |
| 20260506145517 | 61 | 0 | 0.9 | 2.6 | 0.00 | 0.00 | 0.00 | 83 | 1017.7 |
| 20260506145015 | 60 | 43 | 0.0 | 2.6 | 0.00 | 0.00 | 0.00 | 84 | 1017.7 |
| 20260506144531 | 60 | 74 | 0.9 | 3.5 | 0.00 | 0.00 | 0.00 | 85 | 1017.8 |
| 20260506144015 | 59 | 65 | 0.9 | 3.5 | 0.00 | 0.00 | 0.00 | 85 | 1017.7 |
| 20260506143517 | 59 | 65 | 1.7 | 2.6 | 0.00 | 0.00 | 0.00 | 85 | 1017.7 |
| 20260506143045 | 59 | 67 | 0.9 | 2.6 | 0.00 | 0.00 | 0.00 | 86 | 1017.6 |
| 20260506142514 | 58 | 71 | 0.9 | 2.6 | 0.00 | 0.00 | 0.00 | 87 | 1017.7 |
| 20260506142014 | 58 | 68 | 0.9 | 2.6 | 0.00 | 0.00 | 0.00 | 87 | 1017.6 |
| 20260506141535 | 58 | 61 | 1.7 | 2.6 | 0.00 | 0.00 | 0.00 | 87 | 1017.5 |
| 20260506141015 | 57 | 49 | 1.7 | 2.6 | 0.00 | 0.00 | 0.00 | 87 | 1017.5 |
| 20260506140518 | 57 | 55 | 0.9 | 1.7 | 0.00 | 0.00 | 0.00 | 88 | 1017.5 |
| 20260506140030 | 57 | 46 | 0.9 | 1.7 | 0.00 | 0.00 | 0.00 | 89 | 1017.5 |
| 20260506135514 | 57 | 39 | 0.9 | 1.7 | 0.00 | 0.00 | 0.00 | 90 | 1017.4 |
| 20260506135014 | 56 | 39 | 0.0 | 1.7 | 0.00 | 0.00 | 0.00 | 90 | 1017.5 |
| 20260506134531 | 55 | 36 | 0.0 | 1.7 | 0.00 | 0.00 | 0.00 | 90 | 1017.3 |
| 20260506134020 | 55 | 36 | 0.0 | 1.7 | 0.00 | 0.00 | 0.00 | 90 | 1017.3 |
| 20260506133516 | 55 | 36 | 0.9 | 1.7 | 0.00 | 0.00 | 0.00 | 90 | 1017.3 |
| 20260506133030 | 54 | 36 | 0.0 | 1.7 | 0.00 | 0.00 | 0.00 | 90 | 1017.2 |
| 20260506132515 | 54 | 0 | 0.0 | 1.7 | 0.00 | 0.00 | 0.00 | 90 | 1017.2 |
| 20260506132015 | 54 | 36 | 0.0 | 1.7 | 0.00 | 0.00 | 0.00 | 90 | 1017.0 |
| 20260506131532 | 54 | 0 | 0.0 | 1.7 | 0.00 | 0.00 | 0.00 | 90 | 1017.0 |
| 20260506131014 | 54 | 36 | 0.0 | 1.7 | 0.00 | 0.00 | 0.00 | 90 | 1016.8 |
| 20260506130518 | 54 | 36 | 0.0 | 1.7 | 0.00 | 0.00 | 0.00 | 90 | 1016.8 |
| 20260506130031 | 54 | 30 | 0.0 | 1.7 | 0.00 | 0.00 | 0.00 | 89 | 1017.0 |
| 20260506125514 | 54 | 0 | 0.0 | 1.7 | 0.00 | 0.00 | 0.00 | 89 | 1016.7 |
| 20260506125014 | 54 | 30 | 0.0 | 1.7 | 0.00 | 0.00 | 0.00 | 89 | 1016.6 |
| 20260506124532 | 54 | 65 | 0.0 | 1.7 | 0.00 | 0.00 | 0.00 | 89 | 1016.6 |
| 20260506124014 | 54 | 65 | 0.0 | 1.7 | 0.00 | 0.00 | 0.00 | 89 | 1016.6 |
| 20260506123514 | 54 | 0 | 0.0 | 1.7 | 0.00 | 0.00 | 0.00 | 89 | 1016.5 |
| 20260506123033 | 54 | 0 | 0.0 | 1.7 | 0.00 | 0.00 | 0.00 | 89 | 1016.4 |
| 20260506122515 | 54 | 0 | 0.0 | 1.7 | 0.00 | 0.00 | 0.00 | 89 | 1016.5 |
| 20260506122014 | 54 | 0 | 0.0 | 1.7 | 0.00 | 0.00 | 0.00 | 89 | 1016.6 |
| 20260506121539 | 55 | 65 | 0.0 | 1.7 | 0.00 | 0.00 | 0.00 | 89 | 1016.5 |
| 20260506121015 | 55 | 65 | 0.0 | 1.7 | 0.00 | 0.00 | 0.00 | 89 | 1016.6 |
| 20260506120516 | 55 | 65 | 0.9 | 1.7 | 0.00 | 0.00 | 0.00 | 89 | 1016.5 |
| 20260506120031 | 55 | 65 | 0.0 | 1.7 | 0.00 | 0.00 | 0.00 | 89 | 1016.5 |
| 20260506115514 | 55 | 65 | 0.0 | 0.9 | 0.00 | 0.00 | 0.00 | 89 | 1016.4 |
| 20260506115014 | 55 | 65 | 0.0 | 1.7 | 0.00 | 0.00 | 0.00 | 89 | 1016.3 |
| 20260506114539 | 55 | 65 | 0.0 | 1.7 | 0.00 | 0.00 | 0.00 | 89 | 1016.3 |
| 20260506114016 | 55 | 65 | 0.0 | 1.7 | 0.00 | 0.00 | 0.00 | 89 | 1016.4 |
| 20260506113515 | 55 | 0 | 0.0 | 0.0 | 0.00 | 0.00 | 0.00 | 89 | 1016.4 |
| 20260506113030 | 55 | 0 | 0.0 | 0.0 | 0.00 | 0.00 | 0.00 | 89 | 1016.5 |
| 20260506112519 | 55 | 0 | 0.0 | 1.7 | 0.00 | 0.00 | 0.00 | 89 | 1016.3 |
| 20260506112018 | 55 | 0 | 0.0 | 1.7 | 0.00 | 0.00 | 0.00 | 89 | 1016.3 |
| 20260506111537 | 55 | 0 | 0.0 | 0.0 | 0.00 | 0.00 | 0.00 | 89 | 1016.4 |
| 20260506111014 | 55 | 0 | 0.0 | 0.9 | 0.00 | 0.00 | 0.00 | 89 | 1016.4 |
| 20260506110518 | 56 | 0 | 0.0 | 1.7 | 0.00 | 0.00 | 0.00 | 89 | 1016.3 |
| 20260506110033 | 56 | 65 | 0.0 | 1.7 | 0.00 | 0.00 | 0.00 | 89 | 1016.4 |
| 20260506105516 | 56 | 65 | 0.9 | 1.7 | 0.00 | 0.01 | 0.00 | 89 | 1016.3 |
| 20260506105015 | 56 | 59 | 0.0 | 1.7 | 0.00 | 0.01 | 0.00 | 89 | 1016.3 |
| 20260506104532 | 56 | 0 | 0.0 | 1.7 | 0.00 | 0.01 | 0.00 | 89 | 1016.2 |
| 20260506104015 | 56 | 59 | 0.9 | 0.9 | 0.00 | 0.01 | 0.00 | 89 | 1016.3 |
| 20260506103516 | 56 | 59 | 0.9 | 1.7 | 0.00 | 0.01 | 0.00 | 89 | 1016.3 |
| 20260506103030 | 56 | 59 | 0.9 | 1.7 | 0.00 | 0.01 | 0.00 | 88 | 1016.3 |
| 20260506102518 | 56 | 61 | 0.9 | 1.7 | 0.00 | 0.01 | 0.00 | 88 | 1016.4 |
| 20260506102013 | 56 | 0 | 0.0 | 1.7 | 0.00 | 0.01 | 0.00 | 88 | 1016.3 |
| 20260506101534 | 57 | 0 | 0.0 | 1.7 | 0.00 | 0.01 | 0.00 | 88 | 1016.3 |
| 20260506101014 | 57 | 0 | 0.0 | 0.9 | 0.00 | 0.01 | 0.00 | 88 | 1016.3 |
| 20260506100514 | 57 | 0 | 0.0 | 1.7 | 0.00 | 0.01 | 0.00 | 88 | 1016.3 |
| 20260506100032 | 57 | 0 | 0.0 | 1.7 | 0.00 | 0.01 | 0.00 | 88 | 1016.4 |
| 20260506095515 | 57 | 0 | 0.0 | 1.7 | 0.00 | 0.01 | 0.00 | 88 | 1016.4 |
| 20260506095022 | 58 | 0 | 0.0 | 1.7 | 0.00 | 0.01 | 0.00 | 88 | 1016.4 |
| 20260506094530 | 57 | 193 | 0.0 | 1.7 | 0.00 | 0.01 | 0.00 | 88 | 1016.4 |
| 20260506094015 | 58 | 193 | 0.0 | 1.7 | 0.00 | 0.01 | 0.00 | 88 | 1016.3 |
| 20260506093515 | 58 | 193 | 0.0 | 1.7 | 0.00 | 0.01 | 0.00 | 88 | 1016.3 |
| 20260506093032 | 58 | 193 | 0.0 | 1.7 | 0.00 | 0.01 | 0.00 | 88 | 1016.4 |
| 20260506092515 | 58 | 193 | 0.9 | 1.7 | 0.00 | 0.01 | 0.00 | 88 | 1016.4 |
| 20260506092013 | 58 | 193 | 0.9 | 2.6 | 0.00 | 0.01 | 0.00 | 88 | 1016.4 |
| 20260506091530 | 58 | 207 | 0.9 | 2.6 | 0.00 | 0.01 | 0.00 | 88 | 1016.5 |
| 20260506091015 | 58 | 202 | 1.7 | 2.6 | 0.00 | 0.01 | 0.00 | 88 | 1016.5 |
| 20260506090514 | 58 | 197 | 1.7 | 2.6 | 0.00 | 0.01 | 0.00 | 88 | 1016.6 |
| 20260506090030 | 58 | 231 | 1.7 | 3.5 | 0.00 | 0.01 | 0.00 | 88 | 1016.7 |
| 20260506085514 | 58 | 229 | 1.7 | 3.5 | 0.00 | 0.01 | 0.00 | 87 | 1016.6 |
| 20260506085016 | 58 | 202 | 1.7 | 3.5 | 0.00 | 0.01 | 0.00 | 87 | 1016.8 |
| 20260506084530 | 58 | 212 | 0.9 | 3.5 | 0.00 | 0.01 | 0.00 | 87 | 1016.7 |
| 20260506084016 | 58 | 190 | 1.7 | 3.5 | 0.00 | 0.01 | 0.00 | 87 | 1016.8 |
| 20260506083516 | 58 | 188 | 1.7 | 3.5 | 0.00 | 0.01 | 0.00 | 87 | 1016.8 |
| 20260506083030 | 58 | 202 | 0.9 | 3.5 | 0.00 | 0.01 | 0.00 | 87 | 1016.9 |
| 20260506082514 | 58 | 217 | 0.0 | 3.5 | 0.00 | 0.01 | 0.00 | 87 | 1016.8 |
| 20260506082015 | 58 | 195 | 1.7 | 4.3 | 0.00 | 0.01 | 0.00 | 87 | 1016.8 |
| 20260506081529 | 58 | 205 | 1.7 | 4.3 | 0.00 | 0.01 | 0.00 | 86 | 1016.8 |
| 20260506081015 | 58 | 181 | 0.9 | 3.5 | 0.00 | 0.01 | 0.00 | 86 | 1016.8 |
| 20260506080517 | 58 | 190 | 1.7 | 4.3 | 0.00 | 0.01 | 0.00 | 86 | 1017.0 |
| 20260506073515 | 58 | 188 | 0.0 | 1.7 | 0.00 | 0.01 | 0.00 | 85 | 1016.9 |
| 20260506073030 | 58 | 188 | 0.0 | 1.7 | 0.00 | 0.01 | 0.00 | 84 | 1016.9 |
| 20260506072515 | 58 | 0 | 0.0 | 1.7 | 0.00 | 0.01 | 0.00 | 84 | 1016.9 |
| 20260506072011 | 59 | 0 | 0.0 | 2.6 | 0.00 | 0.01 | 0.00 | 84 | 1016.8 |
| 20260506071533 | 59 | 188 | 0.9 | 2.6 | 0.00 | 0.01 | 0.00 | 85 | 1016.8 |
| 20260506071012 | 59 | 190 | 1.7 | 3.5 | 0.00 | 0.01 | 0.00 | 85 | 1016.7 |
| 20260506070515 | 59 | 191 | 0.9 | 3.5 | 0.00 | 0.01 | 0.00 | 84 | 1016.6 |
| 20260506062015 | 59 | 202 | 2.6 | 6.1 | 0.00 | 0.01 | 0.01 | 84 | 1016.3 |
| 20260506061535 | 59 | 172 | 1.7 | 5.2 | 0.00 | 0.01 | 0.01 | 84 | 1016.4 |
| 20260506061017 | 59 | 182 | 2.6 | 5.2 | 0.00 | 0.01 | 0.01 | 85 | 1016.4 |
| 20260506060516 | 59 | 198 | 1.7 | 4.3 | 0.00 | 0.01 | 0.01 | 85 | 1016.4 |
| 20260506051014 | 59 | 198 | 3.5 | 7.0 | 0.00 | 0.01 | 0.01 | 85 | 1016.0 |
| 20260506050518 | 59 | 196 | 3.5 | 7.0 | 0.00 | 0.01 | 0.01 | 85 | 1015.9 |
| 20260506045013 | 59 | 198 | 1.7 | 5.2 | 0.00 | 0.01 | 0.01 | 84 | 1015.6 |
| 20260506044542 | 60 | 224 | 2.6 | 5.2 | 0.00 | 0.01 | 0.01 | 84 | 1015.6 |
| 20260506044018 | 60 | 228 | 1.7 | 3.5 | 0.00 | 0.01 | 0.01 | 83 | 1015.6 |
| 20260506043514 | 60 | 203 | 1.7 | 2.6 | 0.00 | 0.01 | 0.01 | 83 | 1015.6 |
| 20260506043032 | 60 | 211 | 0.9 | 2.6 | 0.00 | 0.01 | 0.01 | 83 | 1015.5 |
| 20260506042515 | 60 | 192 | 0.9 | 2.6 | 0.00 | 0.01 | 0.01 | 82 | 1015.5 |
| 20260506042018 | 60 | 189 | 1.7 | 2.6 | 0.00 | 0.01 | 0.01 | 82 | 1015.4 |
| 20260506041532 | 60 | 221 | 1.7 | 2.6 | 0.00 | 0.01 | 0.01 | 81 | 1015.4 |
| 20260506041014 | 60 | 241 | 0.9 | 2.6 | 0.00 | 0.01 | 0.01 | 81 | 1015.3 |
| 20260506040605 | 60 | 250 | 0.9 | 3.5 | 0.00 | 0.01 | 0.01 | 81 | 1015.3 |
| 20260506040051 | 60 | 242 | 0.9 | 4.3 | 0.00 | 0.01 | 0.01 | 80 | 1015.3 |
| 20260506035515 | 60 | 218 | 1.7 | 4.3 | 0.00 | 0.01 | 0.01 | 80 | 1015.1 |
| 20260506035014 | 60 | 194 | 0.9 | 4.3 | 0.00 | 0.01 | 0.01 | 80 | 1015.1 |
| 20260506034534 | 60 | 213 | 1.7 | 4.3 | 0.00 | 0.01 | 0.01 | 80 | 1015.0 |
| 20260506034015 | 60 | 265 | 1.7 | 5.2 | 0.00 | 0.01 | 0.01 | 80 | 1014.9 |
| 20260506033514 | 60 | 244 | 2.6 | 5.2 | 0.00 | 0.01 | 0.01 | 80 | 1014.7 |
| 20260506033032 | 60 | 278 | 2.6 | 5.2 | 0.00 | 0.01 | 0.01 | 80 | 1014.8 |
| 20260506032515 | 60 | 198 | 2.6 | 6.1 | 0.00 | 0.01 | 0.01 | 80 | 1014.7 |
| 20260506032016 | 60 | 199 | 3.5 | 6.1 | 0.00 | 0.01 | 0.01 | 80 | 1014.6 |
| 20260506031542 | 60 | 248 | 2.6 | 7.0 | 0.00 | 0.01 | 0.01 | 81 | 1014.7 |
| 20260506031018 | 60 | 253 | 3.5 | 7.0 | 0.00 | 0.01 | 0.01 | 80 | 1014.8 |
| 20260506030514 | 60 | 236 | 2.6 | 6.1 | 0.00 | 0.01 | 0.01 | 81 | 1014.6 |
| 20260506030029 | 60 | 260 | 3.5 | 6.1 | 0.00 | 0.01 | 0.01 | 80 | 1014.5 |
| 20260506025516 | 60 | 211 | 2.6 | 7.0 | 0.00 | 0.01 | 0.01 | 80 | 1014.4 |
| 20260506025014 | 60 | 190 | 3.5 | 7.0 | 0.00 | 0.01 | 0.01 | 80 | 1014.3 |
| 20260506024533 | 60 | 237 | 3.5 | 7.8 | 0.00 | 0.01 | 0.01 | 80 | 1014.2 |